www.pogodaiklimat.ru

ПОГОДА в Роанок-Рапидсе, NC

  • Прогноз погоды в Роанок-Рапидсе
  • Монитор погоды в Роанок-Рапидсе
  • Климат в Роанок-Рапидсе

АРХИВ ПОГОДЫ в Роанок-Рапидсе

Время (UTC), дата Ветер
(напр.,м/с)
 
Видим.   Явления Облачность Т
(С)
Тd
(С)
f
(%)
Тe
(С)
Тes
(С)
Комфортность

P
(гПа)

Po
(гПа)
Тmin
(С)
Tmax
(С)
R
(мм)
SD
(см)
00:40 16.06 Ю  16 км    ясно  +21.0  +17.0  78  +25  +25  комфорт    1013.5         
01:00 16.06 Ю  16 км    ясно  +21.0  +17.0  78  +25  +25  комфорт    1013.9         
01:20 16.06 Ю  16 км    ясно  +20.0  +17.0  83  +23  +23  комфорт    1013.9         
01:40 16.06 Ю  16 км    ясно  +20.0  +17.0  83  +23  +23  комфорт    1013.9         
02:00 16.06 Ю  16 км    ясно  +20.0  +17.0  83  +23  +23  комфорт    1013.9         
02:20 16.06 Ю  16 км    ясно  +20.0  +17.0  83  +23  +23  комфорт    1013.5         
02:40 16.06 Ю  16 км    ясно  +20.0  +17.0  83  +23  +23  комфорт    1013.9         
03:00 16.06 Ю  16 км    ясно  +19.0  +17.0  88  +21  +21  комфорт    1013.5         
03:20 16.06 Ю  16 км    ясно  +18.0  +17.0  94  +18  +18      1013.5         
03:40 16.06 Ю  16 км    ясно  +18.0  +17.0  94  +18  +18      1013.5         
04:00 16.06 Ю  16 км    ясно  +18.0  +17.0  94  +18  +18      1013.5         
04:20 16.06 Ю  16 км    ясно  +18.0  +17.0  94  +18  +18      1013.2         
04:40 16.06 Ю  16 км    ясно  +18.0  +17.0  94  +18  +18      1013.2         
05:00 16.06 Ю  16 км    ясно  +18.0  +17.0  94  +18  +18      1013.2         
05:20 16.06 Ю  16 км    ясно  +17.0  +17.0  100  +17  +17      1013.2         
05:40 16.06 Ю  16 км    ясно  +17.0  +17.0  100  +17  +17      1012.5         
06:00 16.06 Ю  16 км    ясно  +17.0  +17.0  100  +17  +17      1012.5         
06:20 16.06 Ю  16 км    ясно  +17.0  +17.0  100  +17  +17      1012.2         
06:40 16.06 Ю  16 км    ясно  +17.0  +17.0  100  +17  +17      1011.9         
07:00 16.06 Ю  16 км    ясно  +16.0  +16.0  100  +16  +16      1011.9         
07:20 16.06 Ю  16 км    ясно  +16.0  +16.0  100  +16  +16      1011.9         
07:40 16.06 Ю  16 км    ясно  +16.0  +16.0  100  +16  +16      1011.9         
08:00 16.06 Ю  16 км    ясно  +16.0  +16.0  100  +16  +16      1011.9         
08:20 16.06 Ю  16 км    ясно  +16.0  +16.0  100  +16  +16      1011.9         
08:40 16.06 Ю  16 км    ясно  +16.0  +16.0  100  +16  +16      1011.9         
09:00 16.06 Ю  16 км    ясно  +16.0  +16.0  100  +16  +16      1011.9         
09:20 16.06 Ю  16 км    ясно  +16.0  +16.0  100  +16  +16      1012.2         
09:40 16.06 Ю  16 км    ясно  +16.0  +16.0  100  +16  +16      1011.9         
10:00 16.06 ЮЗ  16 км    ясно  +17.0  +17.0  100  +17  +17      1012.2         
10:20 16.06 ЮЗ  16 км    ясно  +18.0  +18.0  100  +18  +19      1012.2         
10:40 16.06 ЮЗ  16 км    ясно  +18.0  +18.0  100  +18  +19      1012.2         
11:00 16.06 ЮЗ  16 км    ясно  +20.0  +20.0  100  +23  +25  комфорт    1012.5         
11:20 16.06 ЮЗ  16 км    ясно  +21.0  +21.0  100  +27  +29  душно    1012.5         
11:40 16.06 ЮЗ  16 км    ясно  +22.0  +21.0  94  +28  +30  душно    1012.5         
12:00 16.06 ЮЗ  6
{8} 
16 км    ясно  +22.0  +21.0  94  +28  +30  душно    1012.5         
12:20 16.06 ЮЗ  16 км    ясно  +23.0  +21.0  89  +31  +34  очень
душно 
  1012.5         
12:40 16.06 ЮЗ  5
{8} 
16 км    ясно  +24.0  +21.0  83  +30  +33  очень
душно 
  1012.5         
13:00 16.06 ЮЗ  5
{9} 
16 км    ясно  +25.0  +22.0  83  +32  +37  очень
душно 
  1012.2         
13:20 16.06 ЮЗ  7
{9} 
16 км    ясно  +25.0  +22.0  83  +32  +34  очень
душно 
  1012.2         
13:40 16.06 ЮЗ  6
{10} 
16 км    ясно  +26.0  +21.0  74  +33  +36  очень
душно 
  1012.2         
14:00 16.06 ЮЗ  7
{10} 
н/о    ясно  +26.0  +21.0  74  +33  +36  очень
душно 
  1012.2         
14:20 16.06 ЮЗ  7
{11} 
16 км    ясно  +26.0  +21.0  74  +33  +36  очень
душно 
  1011.9         
14:40 16.06 ЮЗ  6
{10} 
16 км    ясно  +27.0  +22.0  74  +35  +39  очень
душно 
  1011.9         
15:00 16.06 ЮЗ  7
{10} 
16 км    ясно  +27.0  +21.0  70  +34  +37  очень
душно 
  1011.5         
15:20 16.06 ЮЗ  7
{9} 
16 км    ясно  +28.0  +22.0  70  +36  +40  очень
душно 
  1011.5         
15:40 16.06 ЮЗ  7
{10} 
16 км    ясно  +27.0  +22.0  74  +35  +39  очень
душно 
  1011.5         
16:00 16.06 Ю  7
{10} 
16 км    ясно  +28.0  +22.0  70  +36  +41  очень
душно 
  1011.2         
16:20 16.06 ЮЗ  8
{10} 
16 км    ясно  +28.0  +22.0  70  +36  +39  очень
душно 
  1010.8         

 

Местоположение метеостанции Halifax-Northampton Regional Airport: широта 36.3300 долгота -77.6350 высота над уровнем моря 44 м.

В архиве по умолчанию представлена погода в Роанок-Рапидсе за последние 1-2 суток. Обновление информации о фактической погоде в базе происходит ежечасно! Архивные данные за месяц целиком и за предыдущие месяцы Вы можете получить, выбрав интересующий диапазон дат из раскрывающегося списка и нажав кнопку "Ввод!".

Внимание! Архив погоды МЕТАР в базе сайта хранится не более 60 дней. Нет смысла пытаться выбрать более раннюю дату.

Внимание! Время в таблицах - всемирное. Для получения местного времени необходимо прибавить поправку, которая в Роанок-Рапидсе равна -5 ч.

Ветер - указаны скорость ветра в м/с и направление, откуда дует ветер: С - северный, СВ - северо-восточный, В - восточный, ЮВ - юго-восточный, Ю - южный, ЮЗ - юго-западный, З - западный, СЗ - северо-западный.
Видимость - горизонтальная дальность видимости в метрах или километрах. При видимости от 1 до 10 км при отсутствии осадков обычно наблюдается дымка, при ухудшении видимости до 1 км и менее - туман. В сухую погоду видимость может ухудшаться дымом, пылью или мглою.
Атмосферные явления - указаны явления, наблюдавшиеся в указанный момент времени.
Облачность - указаны через наклонную черту верхняя и нижняя облачность в баллах и высота нижней границы облаков в метрах. Внимание: облачность, как и прочие метеорологические величины в США измеряются автоматическими метеостанциями. Указанные значения в баллах носят условный характер и показывают процент времени, в течение которого, в среднем, лазерный луч высотомера отражался от облаков обратно.
T - Температура воздуха - температура, измеренная на высоте 2 м над землей.
Td - Температура точки росы - температура, при понижении до которой содержащийся в воздухе водяной пар достигнет насыщения.
f - Относительная влажность воздуха - влажноcть воздуха, измеренная на высоте 2 м над землей.
Te - Эффективная температура - температура, которую ощущает одетый по сезону человек в тени. Характеристика душности погоды. При расчете учитывается влияние влажности воздуха и скорости ветра на теплоощущения человека.
Tes - Эффективная температура на солнце - температура, которую ощущает человек, с поправкой на солнечный нагрев. Характеристика знойности погоды. Зависит от высоты солнца над горизонтом, облачности и скорости ветра. Ночью, в пасмурную погоду, а также при ветре 12 м/с и более поправка равна нулю.
P - Атмосферное давление - приведенное к уровню моря атмосферное давление.
Po - Атмосферное давление - измеренное на уровне метеостанции атмосферное давление.
Tmin - Минимальная температура - минимум температуры воздуха на высоте 2 м над землей.
Tmax - Максимальная температура - максимум температуры воздуха на высоте 2 м над землей.
R - Количество осадков - Количество выпавших осадков за 3 или 6 часов, мм.
SD - Снежный покров - Высота снежного покрова, см.